Tracking 19832 objects as of 24-Aug-2019
HD Live streaming from Space Station
objects crossing your sky now

INTELSAT 3-F8

Track INTELSAT 3-F8 now!
INTELSAT 3-F8 is classified as:


NORAD ID: 4478
Int'l Code: 1970-055A
Perigee: 33,851.5 km
Apogee: 36,637.3 km
Inclination: 0.6 °
Period: 1,408.1 minutes
Semi major axis: 41615 km
RCS: 2.5127 m2 (large)
Launch date: July 23, 1970
Source: International Telecommunications Satellite Organization (ITSO)
Launch site: AIR FORCE EASTERN TEST RANGE (AFETR)
aabbcc
Your satellite tracking list
Your tracking list is empty




NASA's NSSDC Master Catalog

Two Line Element Set (TLE):
1  4478U 70055A   19235.88303947 -.00000170 +00000-0 +00000-0 0  9991
2  4478 000.6458 311.4196 0334706 183.7139 282.6322 01.02263819097371
Source of the keplerian elements: AFSPC